Change the Weather History Date:

Monday, April 28, 2014

  Actual Average Record
Temperature  
Mean Temperature 48 °F -  
Max Temperature 59 °F 61 °F 89 °F (1990)
Min Temperature 37 °F 33 °F 25 °F (1975)
Degree Days  
Heating Degree Days 17    
Moisture  
Dew Point 29 °F    
Average Humidity 49    
Maximum Humidity 70    
Minimum Humidity 34    
Precipitation  
Precipitation 0.00 in - - ()
Sea Level Pressure  
Sea Level Pressure 30.02 in    
Wind  
Wind Speed 9 mph (East)    
Max Wind Speed 17 mph    
Max Gust Speed 28 mph    
Visibility 10 miles    
Events      
Averages and records for this station are not official NWS values.
T = Trace of Precipitation, MM = Missing Value Source: NWS Daily Summary

Daily Weather History Graph

Daily Weather History Graph

Search for Another Location

Airport or City:

Trip Planner

Search our weather history database for the weather conditions in past years. The results will help you decide how hot, cold, wet, or windy it might be!

Date:

Astronomy

Apr. 28, 2014 Rise Set
Actual Time 6:16 AM EDT 8:12 PM EDT
Civil Twilight 5:46 AM EDT 8:43 PM EDT
Nautical Twilight 5:09 AM EDT 9:20 PM EDT
Astronomical Twilight 4:29 AM EDT 10:00 PM EDT
Moon 5:55 AM EDT (4/28) 7:48 PM EDT (4/28)
Length of Visible Light 14h 56m
Length of Day
13h 56m
Waning Crescent, 0% of the Moon is Illuminated
Apr 28
Waning Crescent
Apr 29
New
May 6
First Quarter
May 14
Full
May 21
Last Quarter

Hourly Weather History & Observations

Time (EDT) Temp. Windchill Dew Point Humidity Pressure Visibility Wind Dir Wind Speed Gust Speed Precip Events Conditions
12:15 AM 39.2 °F 33.6 °F 26.6 °F 61% 30.14 in 10.0 mi ENE 8.1 mph - N/A   Clear
12:35 AM 39.2 °F 34.2 °F 26.6 °F 61% 30.14 in 10.0 mi ENE 6.9 mph - N/A   Clear
12:55 AM 39.2 °F 34.2 °F 26.6 °F 61% 30.14 in 10.0 mi ENE 6.9 mph - N/A   Clear
1:15 AM 39.2 °F 35.0 °F 26.6 °F 61% 30.13 in 10.0 mi ENE 5.8 mph - N/A   Clear
1:35 AM 39.2 °F 34.2 °F 26.6 °F 61% 30.11 in 10.0 mi ENE 6.9 mph - N/A   Clear
1:55 AM 39.2 °F 33.6 °F 26.6 °F 61% 30.10 in 10.0 mi East 8.1 mph - N/A   Clear
2:15 AM 39.2 °F 33.6 °F 26.6 °F 61% 30.10 in 10.0 mi East 8.1 mph - N/A   Clear
2:35 AM 39.2 °F 34.2 °F 26.6 °F 61% 30.10 in 10.0 mi East 6.9 mph - N/A   Clear
2:55 AM 39.2 °F 33.6 °F 26.6 °F 61% 30.09 in 10.0 mi East 8.1 mph - N/A   Clear
3:15 AM 39.2 °F 33.0 °F 26.6 °F 61% 30.09 in 10.0 mi East 9.2 mph - N/A   Clear
3:35 AM 39.2 °F 33.6 °F 26.6 °F 61% 30.09 in 10.0 mi East 8.1 mph - N/A   Clear
4:15 AM 37.4 °F 30.8 °F 26.6 °F 65% 30.10 in 10.0 mi East 9.2 mph - N/A   Clear
4:35 AM 37.4 °F 32.1 °F 26.6 °F 65% 30.10 in 10.0 mi East 6.9 mph - N/A   Clear
4:55 AM 37.4 °F 32.1 °F 26.6 °F 65% 30.11 in 10.0 mi East 6.9 mph - N/A   Clear
5:15 AM 37.4 °F 32.8 °F 26.6 °F 65% 30.11 in 10.0 mi East 5.8 mph - N/A   Clear
5:35 AM 37.4 °F 32.1 °F 26.6 °F 65% 30.11 in 10.0 mi East 6.9 mph - N/A   Clear
5:55 AM 37.4 °F 32.1 °F 26.6 °F 65% 30.10 in 10.0 mi East 6.9 mph - N/A   Clear
6:35 AM 37.4 °F 30.3 °F 26.6 °F 65% 30.09 in 10.0 mi East 10.4 mph - N/A   Clear
6:55 AM 37.4 °F 30.8 °F 28.4 °F 70% 30.10 in 10.0 mi East 9.2 mph - N/A   Clear
7:15 AM 39.2 °F 34.2 °F 28.4 °F 65% 30.11 in 10.0 mi East 6.9 mph - N/A   Clear
7:35 AM 39.2 °F 33.0 °F 28.4 °F 65% 30.11 in 10.0 mi East 9.2 mph - N/A   Clear
7:55 AM 41.0 °F 35.8 °F 28.4 °F 61% 30.12 in 10.0 mi East 8.1 mph - N/A   Clear
8:15 AM 42.8 °F 37.5 °F 28.4 °F 57% 30.11 in 10.0 mi East 9.2 mph - N/A   Clear
8:35 AM 42.8 °F 35.8 °F 26.6 °F 53% 30.09 in 10.0 mi East 13.8 mph 18.4 mph N/A   Clear
8:55 AM 44.6 °F 38.8 °F 26.6 °F 49% 30.09 in 10.0 mi East 11.5 mph 18.4 mph N/A   Clear
9:15 AM 44.6 °F 38.4 °F 26.6 °F 49% 30.09 in 10.0 mi East 12.7 mph 21.9 mph N/A   Clear
9:35 AM 44.6 °F 37.4 °F 26.6 °F 49% 30.08 in 10.0 mi East 16.1 mph 23.0 mph N/A   Clear
9:55 AM 46.4 °F 39.8 °F 26.6 °F 46% 30.06 in 10.0 mi East 16.1 mph 21.9 mph N/A   Clear
10:15 AM 46.4 °F 40.1 °F 26.6 °F 46% 30.05 in 10.0 mi East 15.0 mph 27.6 mph N/A   Clear
10:55 AM 48.2 °F - 26.6 °F 43% 30.03 in 10.0 mi ENE 17.3 mph 23.0 mph N/A   Clear
11:15 AM 48.2 °F - 26.6 °F 43% 30.03 in 10.0 mi East 10.4 mph 20.7 mph N/A   Clear
11:35 AM 50.0 °F - 28.4 °F 43% 30.02 in 10.0 mi ENE 15.0 mph - N/A   Clear
11:55 AM 51.8 °F - 28.4 °F 41% 30.02 in 10.0 mi East 11.5 mph 17.3 mph N/A   Clear
12:15 PM 51.8 °F - 30.2 °F 44% 30.02 in 10.0 mi East 9.2 mph - N/A   Clear
12:35 PM 53.6 °F - 30.2 °F 41% 30.00 in 10.0 mi East 13.8 mph - N/A   Clear
12:55 PM 53.6 °F - 30.2 °F 41% 29.99 in 10.0 mi East 9.2 mph 17.3 mph N/A   Clear
1:15 PM 53.6 °F - 30.2 °F 41% 29.97 in 10.0 mi ENE 10.4 mph - N/A   Clear
1:35 PM 53.6 °F - 30.2 °F 41% 29.97 in 10.0 mi ENE 10.4 mph 16.1 mph N/A   Clear
1:55 PM 53.6 °F - 30.2 °F 41% 29.97 in 10.0 mi East 11.5 mph - N/A   Clear
2:15 PM 55.4 °F - 30.2 °F 38% 29.97 in 10.0 mi ESE 9.2 mph - N/A   Clear
2:35 PM 57.2 °F - 32.0 °F 38% 29.96 in 10.0 mi ENE 9.2 mph 18.4 mph N/A   Clear
2:55 PM 57.2 °F - 30.2 °F 36% 29.96 in 10.0 mi ESE 9.2 mph 16.1 mph N/A   Clear
3:15 PM 57.2 °F - 30.2 °F 36% 29.96 in 10.0 mi ESE 6.9 mph 17.3 mph N/A   Clear
3:55 PM 57.2 °F - 30.2 °F 36% 29.95 in 10.0 mi ESE 8.1 mph - N/A   Scattered Clouds
4:15 PM 59.0 °F - 30.2 °F 34% 29.95 in 10.0 mi East 10.4 mph - N/A   Overcast
4:35 PM 59.0 °F - 30.2 °F 34% 29.94 in 10.0 mi East 8.1 mph - N/A   Scattered Clouds
5:15 PM 59.0 °F - 30.2 °F 34% 29.92 in 10.0 mi East 11.5 mph - N/A   Partly Cloudy
5:35 PM 59.0 °F - 30.2 °F 34% 29.92 in 10.0 mi East 6.9 mph - N/A   Mostly Cloudy
5:55 PM 59.0 °F - 30.2 °F 34% 29.92 in 10.0 mi East 8.1 mph - N/A   Overcast
6:15 PM 57.2 °F - 30.2 °F 36% 29.92 in 10.0 mi ENE 8.1 mph - N/A   Scattered Clouds
6:35 PM 57.2 °F - 30.2 °F 36% 29.92 in 10.0 mi ESE 8.1 mph - N/A   Clear
6:55 PM 57.2 °F - 30.2 °F 36% 29.92 in 10.0 mi SE 10.4 mph - N/A   Mostly Cloudy
7:15 PM 57.2 °F - 30.2 °F 36% 29.92 in 10.0 mi ESE 9.2 mph - N/A   Overcast
7:35 PM 57.2 °F - 30.2 °F 36% 29.92 in 10.0 mi SE 6.9 mph - N/A   Overcast
7:55 PM 55.4 °F - 30.2 °F 38% 29.93 in 10.0 mi SSE 6.9 mph - N/A   Overcast
8:15 PM 55.4 °F - 30.2 °F 38% 29.94 in 10.0 mi SE 4.6 mph - N/A   Overcast
8:35 PM 55.4 °F - 32.0 °F 41% 29.94 in 10.0 mi SSE 6.9 mph - N/A   Overcast
8:55 PM 55.4 °F - 32.0 °F 41% 29.93 in 10.0 mi SE 8.1 mph - N/A   Overcast
9:15 PM 53.6 °F - 33.8 °F 47% 29.91 in 10.0 mi ESE 10.4 mph - N/A   Overcast
9:35 PM 53.6 °F - 33.8 °F 47% 29.94 in 10.0 mi South 6.9 mph - N/A   Mostly Cloudy
9:55 PM 53.6 °F - 33.8 °F 47% 29.93 in 10.0 mi ESE 10.4 mph 16.1 mph N/A   Overcast
10:15 PM 53.6 °F - 32.0 °F 44% 29.93 in 10.0 mi SE 6.9 mph - N/A   Overcast
10:35 PM 53.6 °F - 33.8 °F 47% 29.93 in 10.0 mi SE 11.5 mph 18.4 mph N/A   Overcast
10:55 PM 53.6 °F - 33.8 °F 47% 29.92 in 10.0 mi ESE 11.5 mph 17.3 mph N/A   Overcast
11:15 PM 53.6 °F - 32.0 °F 44% 29.90 in 10.0 mi ESE 15.0 mph 20.7 mph N/A   Overcast
11:35 PM 51.8 °F - 33.8 °F 50% 29.89 in 10.0 mi SE 15.0 mph - N/A   Mostly Cloudy
11:55 PM 51.8 °F - 32.0 °F 47% 29.89 in 10.0 mi SE 15.0 mph 23.0 mph N/A   Clear